Weather History for Troy, AL

Change the Weather History Date:

Tuesday, December 10, 2013

  Actual Average Record
Temperature  
Mean Temperature 48 °F 49 °F  
Max Temperature 64 °F 61 °F 80 °F (2007)
Min Temperature 31 °F 37 °F 20 °F (2010)
Degree Days  
Heating Degree Days 17 16  
Month to date heating degree days 51 150  
Since 1 July heating degree days 404 543  
Moisture  
Dew Point 49 °F    
Average Humidity 77    
Maximum Humidity 100    
Minimum Humidity 54    
Precipitation  
Precipitation 0.11 in 0.19 in 3.39 in (2008)
Month to date precipitation 1.21 1.76  
Year to date precipitation 51.94 51.54  
Snow  
Snow 0.00 in - - ()
Month to date snowfall 0.0  
Since 1 July snowfall 0.0  
Snow Depth 0.00 in    
Sea Level Pressure  
Sea Level Pressure 30.15 in    
Wind  
Wind Speed 10 mph (WNW)    
Max Wind Speed 25 mph    
Max Gust Speed 32 mph    
Visibility 6 miles    
Events Fog , Rain    
T = Trace of Precipitation, MM = Missing Value Source: NWS Daily Summary

Daily Weather History Graph

Daily Weather History Graph

Search for Another Location

Airport:

Trip Planner

Search our weather history database for the weather conditions in past years. The results will help you decide how hot, cold, wet, or windy it might be!

Date:

Astronomy

Dec. 10, 2013 Rise Set
Actual Time 6:33 AM CST 4:40 PM CST
Civil Twilight 6:06 AM CST 5:07 PM CST
Nautical Twilight 5:36 AM CST 5:37 PM CST
Astronomical Twilight 5:06 AM CST 6:07 PM CST
Moon 12:23 PM CST (12/10) 12:11 AM CST (12/10)
Length of Visible Light 11h 00m
Length of Day
10h 06m
Waxing Gibbous, 62% of the Moon is Illuminated
Dec 10
Waxing Gibbous
Dec 17
Full
Dec 25
Last Quarter
Jan 1
New
Jan 7
First Quarter

Hourly Weather History & Observations

Time (CST) Temp. Windchill Dew Point Humidity Pressure Visibility Wind Dir Wind Speed Gust Speed Precip Events Conditions
12:31 AM 59.0 °F - 57.9 °F 96% 30.03 in 0.5 mi SSW 3.5 mph - N/A Fog Fog
12:53 AM 60.1 °F - 57.9 °F 93% 30.02 in 0.5 mi South 4.6 mph - N/A Fog Fog
1:07 AM 60.1 °F - 57.9 °F 93% 30.02 in 0.8 mi South 4.6 mph - N/A   Mist
1:12 AM 60.1 °F - 57.9 °F 93% 30.02 in 1.2 mi South 4.6 mph - N/A   Overcast
1:16 AM 60.1 °F - 59.0 °F 96% 30.01 in 1.8 mi SSE 5.8 mph - N/A   Overcast
1:21 AM 61.0 °F - 59.0 °F 93% 30.01 in 2.0 mi South 5.8 mph - N/A   Overcast
1:24 AM 61.0 °F - 59.0 °F 93% 30.01 in 1.5 mi South 6.9 mph - N/A   Overcast
1:29 AM 61.0 °F - 60.1 °F 97% 30.01 in 1.0 mi South 5.8 mph - N/A   Overcast
1:43 AM 63.0 °F - 62.1 °F 97% 30.00 in 1.5 mi South 9.2 mph - N/A   Overcast
1:47 AM 62.6 °F - 62.6 °F 100% 30.00 in 2.0 mi South 12.7 mph 18.4 mph N/A   Overcast
1:53 AM 64.0 °F - 62.1 °F 93% 30.00 in 3.0 mi South 9.2 mph 18.4 mph N/A   Overcast
2:12 AM 64.0 °F - 63.0 °F 96% 30.02 in 6.0 mi SW 8.1 mph - N/A   Overcast
2:27 AM 63.0 °F - 62.1 °F 97% 30.02 in 3.0 mi WSW 6.9 mph - N/A   Overcast
2:34 AM 63.0 °F - 62.1 °F 97% 30.03 in 1.8 mi WSW 6.9 mph - N/A   Overcast
2:39 AM 63.0 °F - 62.1 °F 97% 30.02 in 1.5 mi SW 5.8 mph - N/A   Overcast
2:53 AM 63.0 °F - 62.1 °F 97% 30.02 in 1.8 mi SW 8.1 mph - N/A   Overcast
3:06 AM 63.0 °F - 62.1 °F 97% 30.02 in 2.5 mi SW 6.9 mph - N/A   Overcast
3:15 AM 63.0 °F - 62.1 °F 97% 30.03 in 3.0 mi SW 8.1 mph - N/A   Overcast
3:42 AM 64.0 °F - 63.0 °F 96% 30.04 in 3.0 mi West 11.5 mph - N/A   Overcast
3:46 AM 63.0 °F - 62.1 °F 97% 30.04 in 1.8 mi West 10.4 mph 18.4 mph N/A   Overcast
3:49 AM 62.6 °F - 60.8 °F 94% 30.04 in 1.2 mi West 11.5 mph 18.4 mph N/A   Overcast
3:53 AM 62.1 °F - 60.1 °F 93% 30.04 in 1.0 mi West 10.4 mph 18.4 mph N/A   Overcast
3:59 AM 61.0 °F - 60.1 °F 97% 30.04 in 0.8 mi WNW 6.9 mph - N/A   Overcast
4:08 AM 61.0 °F - 59.0 °F 93% 30.04 in 1.2 mi West 6.9 mph - N/A   Overcast
4:26 AM 60.1 °F - 57.9 °F 93% 30.06 in 1.5 mi WNW 10.4 mph - N/A   Overcast
4:34 AM 59.0 °F - 57.0 °F 93% 30.06 in 2.0 mi NW 13.8 mph 20.7 mph N/A   Overcast
4:43 AM 55.9 °F - 54.0 °F 93% 30.08 in 2.0 mi NW 16.1 mph 25.3 mph 0.00 in Rain Light Rain
4:53 AM 51.1 °F - 48.9 °F 92% 30.10 in 3.0 mi NW 18.4 mph 32.2 mph 0.00 in Rain Light Rain
5:06 AM 50.0 °F - 46.9 °F 89% 30.12 in 10.0 mi WNW 17.3 mph 23.0 mph 0.00 in   Overcast
5:16 AM 50.0 °F - 46.9 °F 89% 30.11 in 9.0 mi NW 10.4 mph - 0.01 in Rain Light Rain
5:25 AM 50.0 °F - 46.9 °F 89% 30.11 in 8.0 mi NW 8.1 mph - 0.01 in Rain Light Rain
5:50 AM 50.0 °F - 46.4 °F 87% 30.13 in 5.0 mi West 6.9 mph - 0.02 in Rain Light Rain
5:53 AM 50.0 °F - 46.9 °F 89% 30.13 in 5.0 mi WNW 4.6 mph - 0.02 in Rain Light Rain
6:14 AM 50.0 °F - 46.9 °F 89% 30.13 in 2.5 mi WNW 8.1 mph - 0.09 in Rain Rain
6:16 AM 50.0 °F - 46.9 °F 89% 30.13 in 3.0 mi WNW 6.9 mph - 0.09 in Rain Light Rain
6:23 AM 50.0 °F - 46.9 °F 89% 30.14 in 10.0 mi NW 16.1 mph 20.7 mph 0.09 in   Overcast
6:40 AM 48.9 °F - 45.0 °F 86% 30.15 in 10.0 mi NW 18.4 mph 23.0 mph 0.09 in   Overcast
6:53 AM 48.0 °F - 45.0 °F 89% 30.16 in 10.0 mi NW 10.4 mph - 0.09 in   Overcast
7:18 AM 48.0 °F - 45.0 °F 89% 30.17 in 10.0 mi NW 8.1 mph - N/A   Overcast
7:53 AM 48.0 °F - 45.0 °F 89% 30.18 in 10.0 mi WNW 8.1 mph - 0.00 in   Overcast
8:06 AM 48.9 °F - 45.0 °F 86% 30.19 in 10.0 mi NNW 11.5 mph 23.0 mph N/A   Overcast
8:15 AM 48.0 °F - 44.1 °F 86% 30.20 in 10.0 mi NW 13.8 mph - N/A   Overcast
8:53 AM 45.0 °F 38.5 °F 42.1 °F 90% 30.25 in 10.0 mi NW 13.8 mph 27.6 mph N/A   Overcast
9:24 AM 44.1 °F 35.4 °F 39.9 °F 85% 30.28 in 10.0 mi NW 21.9 mph 29.9 mph N/A   Overcast
9:53 AM 44.1 °F 36.5 °F 39.9 °F 85% 30.30 in 10.0 mi NW 17.3 mph 24.2 mph N/A   Overcast
10:17 AM 45.0 °F 38.9 °F 39.0 °F 80% 30.31 in 10.0 mi NNW 12.7 mph - N/A   Overcast
10:53 AM 44.1 °F 36.8 °F 37.9 °F 79% 30.32 in 10.0 mi NNW 16.1 mph 28.8 mph N/A   Overcast
11:10 AM 44.1 °F 36.5 °F 37.9 °F 79% 30.31 in 10.0 mi NNW 17.3 mph 26.5 mph N/A   Overcast
11:53 AM 46.0 °F 41.0 °F 37.0 °F 71% 30.29 in 10.0 mi NNW 10.4 mph 23.0 mph N/A   Overcast
12:34 PM 46.9 °F - 36.0 °F 66% 30.28 in 10.0 mi NNW 15.0 mph - N/A   Scattered Clouds
12:53 PM 48.9 °F - 36.0 °F 61% 30.27 in 10.0 mi NNW 16.1 mph 20.7 mph N/A   Partly Cloudy
1:53 PM 51.1 °F - 36.0 °F 56% 30.27 in 10.0 mi North 13.8 mph 21.9 mph N/A   Clear
2:53 PM 51.1 °F - 35.1 °F 54% 30.27 in 10.0 mi NNW 13.8 mph - N/A   Clear
3:53 PM 48.9 °F - 36.0 °F 61% 30.27 in 10.0 mi NNW 11.5 mph - N/A   Clear
4:53 PM 46.0 °F 41.4 °F 32.0 °F 58% 30.29 in 10.0 mi North 9.2 mph - N/A   Clear
5:53 PM 43.0 °F 38.8 °F 33.1 °F 68% 30.31 in 10.0 mi North 6.9 mph - N/A   Clear
6:53 PM 41.0 °F 36.4 °F 33.1 °F 73% 30.33 in 10.0 mi North 6.9 mph - N/A   Clear
7:53 PM 39.9 °F 35.1 °F 32.0 °F 73% 30.34 in 10.0 mi North 6.9 mph - N/A   Clear
8:53 PM 37.9 °F 34.4 °F 30.9 °F 76% 30.35 in 10.0 mi NNE 4.6 mph - N/A   Clear
9:53 PM 35.1 °F - 30.9 °F 85% 30.37 in 10.0 mi Calm Calm - N/A   Clear
10:53 PM 34.0 °F - 30.9 °F 89% 30.37 in 10.0 mi Calm Calm - N/A   Clear
11:53 PM 30.9 °F - 28.9 °F 92% 30.36 in 8.0 mi Calm Calm - N/A   Clear